Regional Weather Roundup
Issued by NWS

Home | Current Version | Previous Version | Graphics & Text | Print | Product List | Glossary On
Versions: 1 2 3 4 5 6 7 8 9 10 11 12 13 14 15 16 17 18 19 20 21 22 23 24 25 26 27 28 29 30 31 32 33 34 35 36 37 38 39 40 41 42 43 44 45 46 47 48 49 50
062
ASUS43 KFSD 310610
RWRSD

WEATHER ROUNDUP FOR SOUTH DAKOTA
NATIONAL WEATHER SERVICE SIOUX FALLS SD
100 AM CDT SUN JUL 31 2016

NOTE: "FAIR" INDICATES FEW OR NO CLOUDS BELOW 12,000 FEET WITH NO
SIGNIFICANT WEATHER AND/OR OBSTRUCTIONS TO VISIBILITY.


SDZ001>005-009-010-012>017-310700-
NORTHWEST AND NORTH CENTRAL SOUTH DAKOTA

CITY           SKY/WX    TMP DP  RH WIND       PRES   REMARKS
BUFFALO          N/A     69  57  65 SE9       29.74S
FAITH            N/A     71  61  70 SE15      29.82S
MOBRIDGE       CLOUDY    70  65  84 NE21      29.79F
$$

SDZ012>016-024>037-041>051-057-063-072>074-310700-
SOUTHWEST AND SOUTH CENTRAL SOUTH DAKOTA

CITY           SKY/WX    TMP DP  RH WIND       PRES   REMARKS
RAPID CTY ARPT CLOUDY    64  61  90 S12       29.88R
PIERRE         CLOUDY    74  67  78 E12       29.80F
CUSTER         CLOUDY    58  52  80 CALM      30.01S
ELLSWORTH AFB  LGT RAIN  64  64 100 NW2       29.86
PHILIP         CLOUDY    70  64  81 SE20G30   29.76F
PINE RIDGE     CLOUDY    64  60  87 E12G22    29.93F
WINNER         FAIR      73  68  84 S16       29.86F
$$

SDZ004>011-016>023-039-040-310700-
NORTHEAST SOUTH DAKOTA

CITY           SKY/WX    TMP DP  RH WIND       PRES   REMARKS
ABERDEEN       CLEAR     68  60  75 SE9       29.88R
WATERTOWN      CLEAR     67  58  72 SE7       29.94S
BROOKINGS      CLEAR     64  58  80 SE12      29.95S
SISSETON         N/A     60  58  92 SE5       29.92S
$$

SDZ017-020-022-023-036>040-048>070-310700-
SOUTHEAST SOUTH DAKOTA

CITY           SKY/WX    TMP DP  RH WIND       PRES   REMARKS
SIOUX FALLS    CLOUDY    70  60  70 SE10      29.95S
HURON          PTCLDY    72  62  71 SE10      29.89S
CHAMBERLAIN    CLOUDY    73  68  83 SE16      29.86S
MITCHELL       CLOUDY    74  63  68 S13       29.90S
YANKTON        CLOUDY    72  63  73 SE7       29.93S
$$

ABBREVIATIONS USED IN REMARKS
   TC - TEMPERATURE IN CELSIUS
  WCI - WIND CHILL INDEX
   HX - HEAT INDEX
  VSB - VISIBILITY





USA.gov is the U.S. government's official web portal to all federal, state and local government web resources and services.